User: anonymous   Login
Location: Unspecified
(0.0000°N, 0.0000°E)
Time: 08:56:28
(UTC+01:00)
Language:

Meteor 1-10 Rocket - Orbit

View from above orbital plane
View from above orbital plane
View from above satellite
View from above satellite

Ground track
Ground track

The orbit data is extracted from the following two-line orbital elements,

1  5732U 71120B   18054.58552355 -.00000080 +00000-0 -56063-4 0  9998
2  5732 081.2487 240.2858 0052591 057.2968 303.3256 14.05952822366114
Epoch (UTC): 23 February 2018 14:03:09
Eccentricity: 0.0052591
inclination: 81.2487°
perigee height: 835 km
apogee height: 911 km
right ascension of ascending node: 240.2858°
argument of perigee: 57.2968°
revolutions per day: 14.05952822
mean anomaly at epoch: 303.3256°
orbit number at epoch: 36611

The dashed part of the orbit path shows where the satellite is in the earth's shadow,  

DLR